{"data":{"norad_id":46051,"epoch":"2026-05-25T05:21:23.535648Z","epoch_age_seconds":51778,"freshness":"FRESH","line1":"1 46051U 20055AA  26145.22318907  .00000765  00000+0  36401-4 0  9993","line2":"2 46051  53.1577 118.2493 0001127  84.9422 275.1708 15.31703720320806","mean_motion":15.3170372,"eccentricity":0.0001127,"inclination_deg":53.1577,"raan_deg":118.2493,"arg_perigee_deg":84.9422,"mean_anomaly_deg":275.1708,"bstar":3.6401e-5,"rev_number":32080,"period_min":94.012959634256,"perigee_km":469.95703893404,"apogee_km":471.50077330928,"semimajor_km":6848.8659061217,"source":"CELESTRAK","updated_at":"2026-05-25T13:38:16.461113Z"}}